Flag for Ireland Weather past 2 weeks in Dublin, Ireland

Now
46 °F

Passing clouds.


Feels Like: 39 °F
Forecast: 43 / 56 °F
Wind: 21 mph from Southwest

Location: Dublin Airport

Current Time: Dec 21, 2014 at 5:03:19 AM

Latest Report: Dec 21, 2014 at 4:30 AM


Visibility: N/A

Pressure: 30.18 "Hg

Humidity: 82%

Dew point: 41 °F

Location of DublinLocation

Historic Weather in Dublin — Graph

°F

Dublin temperature yesterday

Maximum temperature yesterday: 46 °F (at 12:30 PM)
Minimum temperature yesterday: 41 °F (at 12:00 AM)
Average temperature yesterday: 43 °F

Past Weeks' High & Low Weather Summary

 TemperatureHumidityPressure
High55 °F (Dec 18, 12:30 PM)100% (Dec 6, 6:30 PM)30.36 "Hg (Dec 6, 6:30 PM)
Low30 °F (Dec 13, 4:30 AM)66% (Dec 10, 1:00 PM)29.24 "Hg (Dec 12, 12:30 AM)
Average42 °F88%29.85 "Hg
* Reported Dec 6 4:00 AM — Dec 21 4:00 AM, Dublin, Weather by CustomWeather, © 2014

Note: Actual official high and low records may vary slightly from our data, if they occured in-between our weather recording intervals... More about our weather records

Advertising

Dublin weather history for previous 24 hours

 ConditionsComfort  
Time TempWeatherWind HumidityBarometerVisibility
4:00 AM
Dec 21
45 °FPartly cloudy.20 mph87%30.21 "HgN/A
3:30 AM46 °FPassing clouds.23 mph76%30.24 "HgN/A
3:00 AM45 °FPassing clouds.20 mph81%30.24 "HgN/A
2:30 AM45 °FPassing clouds.20 mph81%30.24 "HgN/A
2:00 AM45 °FPassing clouds.23 mph81%30.27 "HgN/A
1:30 AM45 °FPassing clouds.22 mph81%30.27 "HgN/A
1:00 AM45 °FPassing clouds.22 mph81%30.27 "HgN/A
12:30 AM45 °FPartly cloudy.22 mph81%30.27 "HgN/A
12:00 AM45 °FPassing clouds.20 mph81%30.27 "HgN/A
11:30 PM
Dec 20
45 °FPassing clouds.20 mph81%30.30 "HgN/A
11:00 PM45 °FPassing clouds.18 mph87%30.33 "HgN/A
10:30 PM45 °FPassing clouds.17 mph87%30.33 "HgN/A
9:30 PM43 °FPartly cloudy.16 mph93%30.33 "HgN/A
9:00 PM43 °FPartly cloudy.16 mph93%30.33 "HgN/A
8:30 PM43 °FPartly cloudy.15 mph100%30.33 "HgN/A
8:00 PM45 °FPartly cloudy.14 mph93%30.36 "HgN/A
7:30 PM45 °FPartly cloudy.12 mph93%30.36 "HgN/A
7:00 PM45 °FPassing clouds.17 mph93%30.36 "HgN/A
6:30 PM45 °FPassing clouds.14 mph87%30.36 "HgN/A
6:00 PM43 °FPassing clouds.10 mph93%30.36 "HgN/A
5:00 PM45 °FPartly cloudy.14 mph93%30.36 "HgN/A
4:30 PM45 °FPassing clouds.10 mph87%30.36 "HgN/A
4:00 PM45 °FPartly sunny.13 mph87%30.36 "HgN/A
3:30 PM46 °FPartly sunny.17 mph82%30.33 "HgN/A
3:00 PM46 °FPartly sunny.20 mph76%30.33 "HgN/A
2:30 PM46 °FPartly sunny.21 mph76%30.33 "HgN/A
2:00 PM46 °FScattered clouds.22 mph82%30.33 "HgN/A
1:30 PM46 °FPassing clouds.20 mph82%30.33 "HgN/A
1:00 PM45 °FPassing clouds.20 mph87%30.33 "HgN/A
12:30 PM46 °FPassing clouds.20 mph82%30.33 "HgN/A
12:00 PM45 °FPassing clouds.22 mph87%30.33 "HgN/A
11:30 AM45 °FPassing clouds.21 mph81%30.30 "HgN/A
11:00 AM43 °FPassing clouds.21 mph87%30.30 "HgN/A
10:30 AM43 °FPassing clouds.21 mph87%30.30 "HgN/A
10:00 AM41 °FPassing clouds.21 mph87%30.30 "HgN/A
9:30 AM41 °FPassing clouds.21 mph87%30.27 "HgN/A
9:00 AM41 °FPassing clouds.20 mph87%30.27 "HgN/A
8:30 AM41 °FPassing clouds.20 mph87%30.27 "HgN/A
8:00 AM41 °FPassing clouds.20 mph87%30.27 "HgN/A
7:30 AM41 °FPassing clouds.21 mph87%30.24 "HgN/A
7:00 AM41 °FPassing clouds.22 mph87%30.24 "HgN/A
6:30 AM41 °FPassing clouds.23 mph87%30.24 "HgN/A
6:00 AM41 °FPassing clouds.20 mph87%30.21 "HgN/A
5:30 AM41 °FPassing clouds.21 mph87%30.21 "HgN/A
5:00 AM41 °FPassing clouds.20 mph87%30.21 "HgN/A
Weather by CustomWeather, © 2014

See weather overviewHow to use our weather pages